DateTimeUTC,F1_A11,F1_S11,BsB_S11,BsG_S11,BsR_S11,BbsB_S11,BbsG_S11,BbsR_S11,BaB_A11,BaG_A11,BaR_A11,Tu_S11,T_S11,Uu_S11,U_S11,P_S11,T1_A11
2021-01-05T18:00:00Z,00000200,21000000,,,,,,,-000.29,0000.07,-000.21,14.6,21.8,,00.0,0635.0,30.3
2021-01-05T18:01:00Z,00000200,21000000,,,,,,,0000.12,0000.13,0000.09,14.5,21.8,,00.0,0635.1,30.3
2021-01-05T18:02:00Z,00000200,21000000,,,,,,,-000.08,0000.14,0000.45,14.4,21.7,,00.0,0635.1,30.3
2021-01-05T18:03:00Z,00000200,61000000,,,,,,,0000.00,-000.01,-000.13,14.4,21.7,,00.0,0635.1,30.2
2021-01-05T18:04:00Z,00000200,41000000,0000.25,0000.06,0000.09,-000.30,0000.11,0000.06,0000.07,0000.11,-000.10,14.4,21.2,,00.0,0635.9,30.2
2021-01-05T18:05:00Z,00000200,01000000,0000.05,-000.13,-000.17,0000.03,-000.19,-000.16,0000.08,-000.05,0000.18,14.4,21.1,,00.0,0635.9,30.1
2021-01-05T18:06:00Z,00000200,01000000,0000.41,0000.07,-000.16,0000.60,-000.11,-000.27,0000.06,-000.07,-000.31,14.3,20.9,,00.0,0635.9,30.1
2021-01-05T18:07:00Z,00000200,01000000,0000.43,0000.36,-000.29,-000.12,0000.13,0000.06,0000.00,0000.15,0000.23,14.2,20.8,,00.0,0635.8,30.0
2021-01-05T18:08:00Z,00000200,01000000,0000.54,0000.12,-000.18,0000.06,-000.11,-000.39,-000.25,-000.21,-000.11,14.2,20.7,,00.0,0635.8,30.0
2021-01-05T18:09:00Z,00000200,01000000,0000.18,0000.18,-000.17,0000.72,-000.08,0000.15,-000.02,-000.17,-000.00,14.1,20.6,,00.0,0635.8,30.0
2021-01-05T18:10:00Z,00000200,01000000,-000.03,0000.21,-000.15,0000.39,-000.05,-000.40,-000.26,-000.61,-000.66,14.0,20.5,,00.0,0635.5,30.1
2021-01-05T18:11:00Z,00000200,01000000,-000.29,0000.11,0000.01,0000.55,0000.11,-000.06,0000.01,-000.27,0000.19,13.9,20.4,,00.0,0635.3,30.1
2021-01-05T18:12:00Z,00000200,01000000,-000.07,0000.04,-000.20,0000.71,0000.01,-000.02,0000.29,0000.36,-000.05,13.8,20.4,,00.0,0635.1,30.2
2021-01-05T18:13:00Z,00000200,01000000,0000.20,0000.28,0000.17,0000.19,0000.11,0000.06,-000.45,0000.13,-000.17,13.8,20.4,,00.0,0634.9,30.3
2021-01-05T18:14:00Z,00000200,01000000,0000.90,0000.09,-000.28,0000.10,0000.01,-000.10,0000.40,0000.16,0000.65,13.7,20.4,,00.0,0634.8,30.3
2021-01-05T18:15:00Z,00000200,01000000,0000.07,0000.24,-000.16,0000.35,0000.12,0000.02,-000.10,-000.07,-000.09,13.7,20.4,,00.0,0634.7,30.3
2021-01-05T18:16:00Z,00000200,01000000,0000.31,0000.21,-000.02,0000.17,-000.12,-000.00,0000.29,0000.63,0000.03,13.7,20.3,,00.0,0634.7,30.3
2021-01-05T18:17:00Z,00000200,01000000,0000.80,0000.24,0000.09,0000.11,0000.20,-000.03,0000.37,0000.17,0000.41,13.7,20.3,,00.0,0634.6,30.4
2021-01-05T18:18:00Z,00000200,01000000,0000.32,0000.21,-000.28,0000.23,0000.07,0000.00,0000.05,0000.30,0000.13,13.7,20.3,,00.0,0634.5,30.4
2021-01-05T18:19:00Z,00000200,01000000,-000.26,-000.03,-000.23,-000.39,-000.13,-000.30,0000.06,-000.24,-000.23,13.7,20.3,,00.0,0634.5,30.4
2021-01-05T18:20:00Z,00000200,01000000,0000.42,0000.16,0000.02,0000.10,-000.16,-000.39,-000.29,0000.09,0000.09,13.7,20.3,,00.0,0634.5,30.5
2021-01-05T18:21:00Z,00000200,01000000,0000.14,0000.12,-000.24,0000.07,-000.29,-000.13,0000.29,0000.01,0000.02,13.7,20.3,,00.0,0634.5,30.5
2021-01-05T18:22:00Z,00000200,01000000,-000.45,-000.03,-000.19,-000.09,0000.06,-000.22,-000.21,-000.23,-000.31,13.7,20.3,,00.0,0634.6,30.5
2021-01-05T18:23:00Z,00000200,01000000,0000.32,-000.13,0000.00,0000.52,-000.03,-000.09,0000.42,0000.24,0000.38,13.7,20.3,,00.0,0634.6,30.5
2021-01-05T18:24:00Z,00000200,01000000,0000.13,0000.35,-000.24,0000.12,-000.05,0000.19,-000.25,-000.05,0000.33,13.7,20.2,,00.0,0634.6,30.5
2021-01-05T18:25:00Z,00000200,01000000,0000.04,0000.33,-000.19,0000.46,-000.15,-000.25,0000.30,0000.05,-000.19,13.7,20.2,,00.0,0634.5,30.5
2021-01-05T18:26:00Z,00000200,01000000,-000.06,-000.09,-000.44,0000.49,-000.00,-000.28,-000.17,0000.04,-000.07,13.8,20.2,,00.0,0634.6,30.5
2021-01-05T18:27:00Z,00000200,01000000,0000.29,0000.01,-000.19,0000.69,-000.05,-000.31,-000.09,-000.20,0000.18,13.8,20.2,,00.0,0634.6,30.5
2021-01-05T18:28:00Z,00000200,01000000,0000.58,0000.25,-000.31,0000.23,-000.05,-000.23,-000.02,0000.42,-000.14,13.8,20.2,,00.0,0634.6,30.5
2021-01-05T18:29:00Z,00000200,01000000,0000.35,0000.08,-000.00,0000.06,-000.04,-000.21,-000.24,-000.42,-000.04,13.8,20.2,,00.0,0634.5,30.5
2021-01-05T18:30:00Z,00000200,01000000,0000.21,0000.27,-000.18,0000.48,-000.00,0000.04,0000.46,0000.26,-000.01,13.8,20.2,,00.0,0634.6,30.5
2021-01-05T18:31:00Z,00000200,01000000,0000.33,-000.22,0000.04,0000.36,0000.03,-000.00,0000.18,0000.13,0000.08,13.9,20.3,,00.0,0634.6,30.5
2021-01-05T18:32:00Z,00000200,01000000,0000.05,0000.20,-000.18,0000.16,-000.09,-000.05,-000.24,-000.17,-000.06,13.9,20.3,,00.0,0634.6,30.5
2021-01-05T18:33:00Z,00000200,01000000,0000.15,-000.04,-000.20,0000.51,-000.10,-000.15,0000.19,0000.59,0000.18,13.9,20.3,,00.0,0634.6,30.5
2021-01-05T18:34:00Z,00000200,01000000,0000.21,0000.20,-000.37,0001.04,-000.11,-000.19,0000.19,-000.13,0000.29,13.9,20.2,,00.0,0634.6,30.5
2021-01-05T18:35:00Z,00000200,01000000,-000.21,0000.21,-000.17,0000.14,0000.00,-000.26,0000.12,0000.49,0000.26,13.9,20.2,,00.0,0634.6,30.5
2021-01-05T18:36:00Z,00000200,01000000,0000.25,0000.15,-000.03,0000.17,0000.02,-000.04,-000.03,-000.07,0000.18,14.0,20.3,,00.0,0634.7,30.5
2021-01-05T18:37:00Z,00000200,01000000,0000.45,0000.05,-000.31,0000.28,-000.26,-000.04,0000.13,-000.01,-000.37,14.0,20.3,,00.0,0634.6,30.5
2021-01-05T18:38:00Z,00000200,01000000,-000.11,0000.10,-000.14,0000.89,-000.40,0000.13,0000.11,0000.12,0000.11,14.1,20.3,,00.0,0634.7,30.5
2021-01-05T18:39:00Z,00000200,01000000,0000.26,0000.06,-000.14,0000.43,-000.04,-000.05,-000.00,-000.17,-000.19,14.1,20.3,,00.0,0634.7,30.5
2021-01-05T18:40:00Z,00000200,01000000,0000.12,-000.12,-000.09,0000.29,-000.03,0000.13,0000.15,0000.24,0000.51,14.1,20.3,,00.0,0634.7,30.5
2021-01-05T18:41:00Z,00000200,01000000,-000.43,0000.07,-000.01,0000.44,0000.03,-000.02,-000.14,0000.02,-000.33,14.1,20.3,,00.0,0634.7,30.5
2021-01-05T18:42:00Z,00000200,01000000,0000.45,0000.18,0000.04,0000.57,-000.02,0000.03,0000.07,-000.04,0000.10,14.1,20.4,,00.0,0634.7,30.5
2021-01-05T18:43:00Z,00000200,01000000,0000.73,0000.30,-000.06,0000.55,0000.12,-000.14,0000.06,0000.04,0000.03,14.2,20.4,,00.0,0634.7,30.5
2021-01-05T18:44:00Z,00000200,01000000,0000.11,0000.41,0000.05,0000.29,-000.06,-000.07,-000.26,-000.08,0000.27,14.2,20.4,,00.0,0634.7,30.5
2021-01-05T18:45:00Z,00000200,01000000,0000.62,0000.33,-000.33,0000.03,-000.03,-000.09,0000.31,0000.04,0000.00,14.2,20.4,,00.0,0634.7,30.6
2021-01-05T18:46:00Z,00000200,01000000,0000.24,-000.12,-000.20,0000.02,0000.06,-000.10,0000.09,-000.16,-000.08,14.3,20.4,,00.0,0634.7,30.5
2021-01-05T18:47:00Z,00000200,01000000,0000.15,0000.15,-000.07,-000.31,-000.21,-000.16,-000.20,0000.64,0000.03,14.3,20.5,,00.0,0634.7,30.6
2021-01-05T18:48:00Z,00000200,01000000,0000.35,0000.04,-000.30,0000.51,-000.18,-000.38,-000.00,-000.36,0000.09,14.4,20.5,,00.0,0634.7,30.6
2021-01-05T18:49:00Z,00000200,01000000,0000.80,0000.03,-000.00,0000.44,0000.07,0000.23,0000.10,-000.22,-000.18,14.4,20.5,,00.0,0634.6,30.6
2021-01-05T18:50:00Z,00000200,01000000,-000.06,-000.05,-000.40,-000.05,-000.22,-000.17,0000.35,0000.36,0000.17,14.4,20.6,,00.0,0634.7,30.6
2021-01-05T18:51:00Z,00000200,01000000,-000.48,0000.10,-000.25,0000.62,0000.04,-000.23,-000.21,0000.02,0000.05,14.5,20.6,,00.0,0634.7,30.6
2021-01-05T18:52:00Z,00000200,01000000,0000.29,0000.07,-000.12,0000.28,-000.07,-000.14,0000.01,0000.31,0000.04,14.5,20.6,,00.0,0634.7,30.6
2021-01-05T18:53:00Z,00000200,01000000,0000.06,0000.02,-000.14,0000.02,-000.21,0000.16,-000.07,-000.25,-000.03,14.5,20.6,,00.0,0634.8,30.6
2021-01-05T18:54:00Z,00000200,01000000,0000.60,-000.05,0000.06,-000.10,0000.01,-000.02,-000.00,0000.05,-000.08,14.6,20.7,,00.0,0634.8,30.6
2021-01-05T18:55:00Z,00000200,01000000,0000.53,-000.07,-000.08,0000.21,-000.04,-000.09,-000.10,0000.01,-000.12,14.6,20.7,,00.0,0634.8,30.6
2021-01-05T18:56:00Z,00000200,01000000,0000.61,0000.04,-000.22,0000.09,-000.10,-000.09,0000.12,-000.29,-000.11,14.7,20.7,,00.0,0634.8,30.6
2021-01-05T18:57:00Z,00000200,41000000,,,,,,,-000.03,0000.11,0000.05,14.7,20.7,,00.0,0634.9,30.6
2021-01-05T18:58:00Z,00000200,61000000,,,,,,,-000.22,-000.13,-000.16,14.2,20.8,,00.0,0634.0,30.6
2021-01-05T18:59:00Z,00000200,21000000,,,,,,,-000.21,-000.13,0000.29,14.1,20.9,,00.0,0634.0,30.5
